Location: Emory University Observatory
(33.7903°N, 84.3267°W)
Time: 20:16:38
(UTC-04:00)

Vanguard 1 - Visible Passes

Search period start: 15 August 2018 00:00
Search period end: 25 August 2018 00:00
Orbit: 650 x 3833 km, 34.2° (Epoch: 13 August)

Date Brightness Start Highest point End Pass type
(mag) Time Alt. Az. Time Alt. Az. Time Alt. Az.
15 Aug 11.7 20:53:47 10° WNW 21:11:37 76° SSW 21:20:05 14° ESE visible
15 Aug 11.9 23:22:30 10° W 23:32:08 28° SW 23:32:47 28° SW visible
16 Aug 11.7 21:15:40 10° WNW 21:32:38 66° SSW 21:39:50 20° SE visible
16 Aug 12.4 23:45:10 10° W 23:52:23 19° SW 23:52:32 19° SW visible
17 Aug 11.8 21:37:34 10° WNW 21:53:28 54° SW 21:59:36 24° SSE visible
18 Aug 12.8 00:09:28 10° WSW 00:12:19 12° WSW 00:12:19 12° WSW visible
18 Aug 11.9 21:59:34 10° WNW 22:14:06 43° SW 22:19:24 25° SSE visible
19 Aug 12.1 22:21:47 10° W 22:34:31 32° SW 22:39:14 22° S visible
20 Aug 12.3 20:14:13 10° WNW 20:34:13 68° SSW 20:45:14 10° SE visible
20 Aug 12.4 22:44:27 10° W 22:54:46 23° SW 22:59:05 18° SSW visible
21 Aug 12.4 20:36:09 10° WNW 20:55:07 57° SW 21:05:46 10° SE visible
21 Aug 12.8 23:08:08 10° W 23:14:54 15° SW 23:18:58 12° SSW visible
22 Aug 12.6 20:58:12 10° WNW 21:15:49 46° SW 21:26:02 10° SSE visible
23 Aug 12.7 21:20:27 10° WNW 21:36:18 36° SW 21:45:59 10° SSE visible
24 Aug 12.8 21:43:07 10° W 21:56:35 27° SW 22:05:28 10° S visible
